EDT,Max TemperatureF,Mean TemperatureF,Min TemperatureF,Max Dew PointF,MeanDew PointF,Min DewpointF,Max Humidity, Mean Humidity, Min Humidity, Max Sea Level PressureIn, Mean Sea Level PressureIn, Min Sea Level PressureIn, Max VisibilityMiles, Mean VisibilityMiles, Min VisibilityMiles, Max Wind SpeedMPH, Mean Wind SpeedMPH, Max Gust SpeedMPH,PrecipitationIn, CloudCover, Events, WindDirDegrees
2013-8-1,82,68,57,66,60,57,97,81,48,30.05,29.98,29.90,10,7,1,12,2,18,0.07,3,Rain,168
2013-8-2,84,74,64,68,65,59,100,83,44,29.88,29.82,29.80,10,7,1,9,2,,0.17,6,Rain-Thunderstorm,247
2013-8-3,78,74,64,66,64,61,93,76,62,29.88,29.84,29.80,10,10,9,10,6,16,0.00,3,Rain,224
2013-8-4,82,68,54,60,56,52,100,82,38,29.89,29.83,29.77,10,6,0,9,1,21,0.04,1,Fog-Rain-Thunderstorm,289
2013-8-5,77,64,50,55,49,42,96,67,30,30.05,29.96,29.89,10,10,6,12,4,20,0.00,0,,306
2013-8-6,81,62,44,55,47,44,100,80,33,30.16,30.10,30.05,10,6,1,8,1,,0.00,0,,175
2013-8-7,79,64,50,64,53,49,100,81,36,30.19,30.17,30.14,10,6,0,9,1,,0.00,2,Fog,164
2013-8-8,81,72,62,70,66,56,91,78,64,30.13,30.07,30.04,10,10,10,16,6,22,0.00,6,Rain,192
2013-8-9,75,74,73,73,71,69,97,91,84,30.05,29.90,29.79,10,5,1,16,8,30,1.39,7,Rain-Thunderstorm,184
2013-8-10,84,72,57,72,62,51,96,71,37,30.01,29.88,29.80,10,8,4,13,6,20,0.00,1,,265
2013-8-11,80,65,50,59,52,48,97,72,39,30.08,30.05,30.01,10,8,1,9,2,,0.00,0,,249
2013-8-12,82,69,57,65,61,56,96,76,47,30.03,29.98,29.93,10,9,2,8,2,,0.00,2,,204
2013-8-13,73,65,57,68,61,57,97,92,73,29.93,29.80,29.70,10,4,0,6,1,,0.03,2,Fog-Rain,152
2013-8-14,75,66,55,64,55,50,97,69,43,29.97,29.76,29.67,10,9,4,16,5,26,0.00,1,,276
2013-8-15,77,62,48,56,50,45,97,64,33,30.09,30.05,29.99,10,10,10,8,3,,0.00,1,,261
2013-8-16,81,72,60,58,54,51,90,56,35,30.20,30.16,30.14,10,10,10,9,4,,0.00,1,,244
2013-8-17,82,66,50,60,54,49,100,83,42,30.28,30.23,30.20,10,5,0,7,0,,0.00,0,Fog,73
2013-8-18,81,67,54,64,56,53,97,87,40,30.28,30.24,30.10,10,4,0,7,0,,0.01,0,Fog-Rain,174
2013-8-19,82,68,54,62,58,53,97,74,42,30.08,30.02,29.96,10,8,1,8,2,,0.00,0,,265
2013-8-20,87,72,59,65,61,57,97,76,37,30.10,30.05,29.99,10,7,0,7,2,,0.00,0,Fog,248
2013-8-21,89,72,55,66,60,55,100,78,41,30.14,30.10,30.04,10,5,0,9,2,,0.00,0,Fog,221
2013-8-22,84,74,63,71,68,62,100,87,65,30.05,29.96,29.85,10,6,0,15,4,25,0.11,3,Fog-Rain-Thunderstorm,214
2013-8-23,80,66,53,69,61,53,100,78,44,30.10,29.93,29.82,10,8,2,9,4,17,0.00,1,,14
2013-8-24,75,62,46,55,49,41,97,76,29,30.34,30.23,30.11,10,7,0,8,1,18,0.00,0,Fog,43
2013-8-25,82,63,44,56,48,43,100,77,29,30.37,30.30,30.21,10,6,0,9,1,,0.00,0,Fog,208
2013-8-26,79,72,66,67,62,59,90,73,54,30.21,30.03,29.90,10,10,7,12,6,17,0.00,3,Rain,220
2013-8-27,81,70,61,70,67,60,100,90,62,29.89,29.86,29.83,10,5,0,14,4,21,0.20,6,Fog-Rain,95
2013-8-28,84,74,63,67,65,62,100,86,53,29.96,29.89,29.85,10,4,0,6,1,,0.00,4,Fog,67
2013-8-29,66,62,57,64,62,56,97,92,87,30.06,30.02,29.95,10,5,2,9,5,,0.00,8,Rain,18
2013-8-30,80,68,57,67,62,55,96,82,62,30.02,29.93,29.85,10,10,7,10,3,,0.00,5,,227
2013-8-31,81,74,69,71,69,67,93,86,76,29.85,29.83,29.82,9,8,5,12,7,18,0.00,6,,206